"startDT [UTC]","vpos","CH4 [ppm]","stdev(CH4) [ppm]","CO2 [ppm]","stdev(CO2) [ppm]","H2O_reported [%]","stdev(H2O_reported)","CavityPressure [torr]","CavityTemp [C]","OutletValve","CH4_dry [ppm]","CO2_dry [ppm]","DasTemp [C]","EtalonTemp [C]","WarmBoxTemp [C]","MPVPosition","T_ECpre [C]","T_EC1 [C]","T_EC2 [C]","p_inlet [hPa]","p_in [hPa]","p_out [hPa]","T_inlet [C]","RH_inlet [%]","dwpt_inlet [C]","T_vent [C]","RH_vent [%]","dwpt_vent [C]","flow_vent [l min-1]","flow_inlet [l min-1]","dwpt_sample [C]","T_room [C]"
2015-01-30 00:00:00,0.0,1.98049,0.00040,409.587,0.026,0.0804,0.0014,140.000,45.000,28785.27427,1.98207,409.982,34.440,45.067,45.000,0.00,0.09,-272.70,-272.73,-9,159,-3,20.9,2.6,-27.5,21.3,2.9,-26.0,5.73,2.57,-21.1,27.6
2015-01-30 00:01:00,0.0,1.98046,0.00045,409.620,0.026,0.0807,0.0016,139.999,45.000,28786.84407,1.98204,410.018,34.446,45.067,45.000,0.00,0.09,-272.68,-272.76,-9,158,-3,20.9,2.6,-27.5,21.4,2.9,-25.9,5.73,2.27,-21.2,27.6
2015-01-30 00:02:00,0.0,1.98005,0.00037,409.593,0.037,0.0801,0.0015,140.000,45.000,28786.59168,1.98160,409.986,34.488,45.067,45.000,0.00,0.09,-272.68,-272.74,-11,159,-3,21.0,2.6,-27.5,21.4,2.9,-25.9,5.73,2.12,-21.1,27.6
2015-01-30 00:03:00,0.0,1.98040,0.00046,409.643,0.040,0.0805,0.0021,139.999,45.000,28788.58646,1.98196,410.040,34.499,45.067,45.000,0.00,0.09,-272.70,-272.73,-11,159,-3,21.0,2.6,-27.5,21.3,2.9,-25.9,5.73,2.53,-21.1,27.5
2015-01-30 00:04:00,0.0,1.98004,0.00044,409.627,0.022,0.0805,0.0014,139.998,45.000,28791.73767,1.98163,410.025,34.494,45.067,45.000,0.00,0.09,-272.68,-272.76,-9,160,-3,20.9,2.6,-27.5,21.3,2.9,-25.8,5.73,2.38,-21.2,27.5
2015-01-30 00:05:00,0.0,1.98002,0.00033,409.593,0.039,0.0814,0.0033,139.999,45.000,28794.82888,1.98160,409.994,34.468,45.067,45.000,0.00,0.09,-272.68,-272.75,-9,159,-3,20.9,2.6,-27.5,21.3,2.9,-25.8,5.73,2.08,-21.2,27.6
2015-01-30 00:06:00,0.0,1.98021,0.00036,409.609,0.027,0.0809,0.0016,140.001,45.000,28790.29879,1.98181,410.007,34.442,45.067,45.000,0.00,0.09,-272.69,-272.73,-11,159,-3,20.9,2.6,-27.5,21.3,2.9,-25.8,5.73,2.46,-21.2,27.6
2015-01-30 00:07:00,0.0,1.98003,0.00037,409.600,0.036,0.0810,0.0015,140.001,45.000,28791.64186,1.98161,409.999,34.444,45.067,45.000,0.00,0.09,-272.68,-272.76,-11,159,-3,21.0,2.6,-27.5,21.3,2.9,-25.8,5.73,2.46,-21.1,27.6
2015-01-30 00:08:00,0.0,1.97978,0.00033,409.573,0.037,0.0805,0.0011,140.001,45.000,28790.60381,1.98137,409.971,34.439,45.067,45.000,0.00,0.09,-272.68,-272.76,-9,160,-3,21.0,2.6,-27.5,21.3,2.9,-25.8,5.73,2.08,-21.2,27.6
2015-01-30 00:09:00,0.0,1.98006,0.00048,409.609,0.030,0.0809,0.0013,140.001,45.000,28791.78480,1.98162,410.006,34.438,45.067,45.000,0.00,0.09,-272.70,-272.73,-10,159,-3,21.0,2.6,-27.5,21.3,2.9,-25.8,5.73,2.37,-21.2,27.5
2015-01-30 00:10:00,0.0,1.98034,0.00038,409.632,0.040,0.0809,0.0018,140.000,45.000,28789.13888,1.98192,410.030,34.432,45.067,45.000,0.00,0.09,-272.69,-272.75,-11,159,-3,21.0,2.6,-27.4,21.4,2.9,-25.8,5.73,2.53,-21.2,27.5
2015-01-30 00:11:00,0.0,1.98032,0.00039,409.637,0.044,0.0811,0.0014,139.999,45.000,28788.01270,1.98189,410.038,34.418,45.068,45.000,0.00,0.09,-272.67,-272.76,-10,160,-3,21.0,2.6,-27.4,21.3,2.9,-25.8,5.73,2.12,-21.2,27.5
2015-01-30 00:12:00,0.0,1.98042,0.00033,409.631,0.030,0.0800,0.0017,140.001,45.000,28789.80119,1.98198,410.024,34.411,45.067,45.000,0.00,0.09,-272.70,-272.74,-9,159,-3,20.9,2.6,-27.4,21.3,2.9,-25.8,5.73,2.31,-21.2,27.6
2015-01-30 00:13:00,0.0,1.98052,0.00033,409.659,0.044,0.0808,0.0015,140.001,45.000,28790.17150,1.98211,410.058,34.419,45.067,45.000,0.00,0.09,-272.69,-272.74,-10,159,-3,20.9,2.6,-27.4,21.3,2.9,-25.8,5.73,2.57,-21.2,27.6
2015-01-30 00:14:00,0.0,1.98037,0.00039,409.657,0.033,0.0812,0.0015,140.000,45.000,28791.90995,1.98194,410.057,34.439,45.067,45.000,0.00,0.09,-272.67,-272.76,-11,160,-3,20.9,2.6,-27.5,21.3,2.9,-25.8,5.73,2.14,-21.2,27.5
2015-01-30 00:15:00,0.0,1.98062,0.00036,409.691,0.029,0.0807,0.0016,139.999,45.000,28793.90413,1.98219,410.089,34.444,45.067,45.000,0.00,0.09,-272.70,-272.73,-10,160,-3,20.9,2.6,-27.5,21.3,2.9,-25.8,5.73,2.25,-21.2,27.5
2015-01-30 00:16:00,0.0,1.98076,0.00048,409.679,0.029,0.0816,0.0019,140.002,45.000,28798.05011,1.98232,410.082,34.478,45.067,45.000,0.00,0.09,-272.69,-272.74,-9,160,-3,20.9,2.6,-27.4,21.3,2.9,-25.8,5.73,2.58,-21.2,27.5
2015-01-30 00:17:00,0.0,1.98083,0.00034,409.679,0.030,0.0813,0.0019,139.999,45.000,28795.37275,1.98243,410.079,34.500,45.067,45.000,0.00,0.09,-272.67,-272.76,-10,160,-3,20.9,2.6,-27.4,21.3,2.9,-25.8,5.73,2.14,-21.2,27.5
2015-01-30 00:18:00,0.0,1.98091,0.00041,409.679,0.026,0.0816,0.0019,140.002,45.000,28796.21811,1.98252,410.081,34.503,45.067,44.999,0.00,0.09,-272.70,-272.73,-11,160,-3,20.9,2.6,-27.4,21.3,2.9,-25.8,5.73,2.26,-21.2,27.5
2015-01-30 00:19:00,0.0,1.98053,0.00029,409.661,0.027,0.0809,0.0012,140.000,45.000,28798.69499,1.98212,410.060,34.513,45.067,44.999,0.00,0.09,-272.69,-272.74,-9,160,-3,20.9,2.6,-27.4,21.3,2.9,-25.8,5.73,2.59,-21.2,27.6
2015-01-30 00:20:00,0.0,1.98065,0.00046,409.693,0.031,0.0808,0.0013,139.999,45.000,28800.55644,1.98222,410.091,34.542,45.067,44.999,0.00,0.09,-272.66,-272.76,-9,160,-3,20.9,2.6,-27.5,21.3,2.9,-25.8,5.73,2.12,-21.2,27.5
2015-01-30 00:21:00,0.0,1.98082,0.00053,409.680,0.031,0.0806,0.0018,139.999,45.000,28798.39535,1.98237,410.077,34.556,45.067,44.999,0.00,0.09,-272.70,-272.73,-11,159,-3,20.9,2.6,-27.5,21.3,2.9,-25.8,5.73,2.27,-21.2,27.5
2015-01-30 00:22:00,0.0,1.98085,0.00043,409.697,0.039,0.0801,0.0017,140.000,45.000,28798.87157,1.98240,410.093,34.563,45.067,44.999,0.00,0.09,-272.69,-272.75,-10,160,-3,20.9,2.6,-27.5,21.3,2.9,-25.8,5.73,2.59,-21.2,27.5
2015-01-30 00:23:00,0.0,1.98127,0.00040,409.734,0.027,0.0799,0.0012,140.002,45.000,28798.06695,1.98284,410.127,34.563,45.067,45.000,0.00,0.09,-272.67,-272.76,-9,161,-3,20.9,2.6,-27.5,21.3,2.9,-25.8,5.73,2.10,-21.2,27.5
2015-01-30 00:24:00,0.0,1.98120,0.00049,409.717,0.025,0.0790,0.0016,140.001,45.000,28798.18214,1.98274,410.108,34.563,45.067,45.000,0.00,0.09,-272.70,-272.73,-10,160,-3,20.9,2.6,-27.6,21.3,2.9,-25.9,5.73,2.31,-21.2,27.5
2015-01-30 00:25:00,0.0,1.98108,0.00038,409.713,0.036,0.0790,0.0016,140.000,45.000,28797.50974,1.98264,410.102,34.560,45.067,45.000,0.00,0.09,-272.69,-272.75,-11,160,-3,20.9,2.5,-27.6,21.3,2.9,-25.8,5.73,2.56,-21.2,27.6
2015-01-30 00:26:00,0.0,1.98099,0.00038,409.699,0.027,0.0792,0.0023,139.999,45.000,28797.85021,1.98253,410.089,34.562,45.067,45.000,0.00,0.09,-272.66,-272.76,-9,160,-3,20.9,2.6,-27.6,21.3,2.9,-25.9,5.73,2.08,-21.2,27.5
2015-01-30 00:27:00,0.0,1.98088,0.00043,409.707,0.040,0.0796,0.0015,139.998,45.000,28796.99485,1.98241,410.100,34.561,45.067,45.000,0.00,0.09,-272.70,-272.73,-9,160,-3,20.9,2.6,-27.6,21.3,2.9,-25.9,5.73,2.34,-21.2,27.5
2015-01-30 00:28:00,0.0,1.98141,0.00035,409.711,0.032,0.0793,0.0015,139.999,45.000,28794.09040,1.98296,410.101,34.552,45.067,45.000,0.00,0.09,-272.69,-272.75,-11,159,-3,20.9,2.6,-27.6,21.3,2.9,-25.8,5.73,2.54,-21.2,27.5
2015-01-30 00:29:00,0.0,1.98135,0.00042,409.729,0.039,0.0788,0.0018,140.002,45.000,28798.54699,1.98292,410.119,34.547,45.067,45.000,0.00,0.09,-272.67,-272.76,-11,160,-3,20.9,2.5,-27.7,21.3,2.9,-25.9,5.73,2.08,-21.2,27.5
2015-01-30 00:30:00,0.0,1.98146,0.00041,409.732,0.035,0.0792,0.0018,139.999,45.000,28797.02622,1.98297,410.122,34.561,45.067,45.000,0.00,0.09,-272.70,-272.72,-9,160,-3,20.9,2.5,-27.7,21.3,2.9,-25.9,5.73,2.36,-21.2,27.5
2015-01-30 00:31:00,0.0,1.98150,0.00054,409.772,0.026,0.0792,0.0015,139.999,45.000,28799.84775,1.98305,410.163,34.549,45.067,45.000,0.00,0.09,-272.69,-272.75,-10,160,-3,20.9,2.5,-27.7,21.3,2.9,-25.8,5.73,2.54,-21.2,27.5
2015-01-30 00:32:00,0.0,1.98176,0.00031,409.785,0.026,0.0788,0.0017,140.000,45.000,28800.58426,1.98328,410.173,34.535,45.067,45.000,0.00,0.09,-272.67,-272.76,-11,160,-3,20.9,2.5,-27.7,21.3,2.9,-25.8,5.73,2.07,-21.2,27.5
2015-01-30 00:33:00,0.0,1.98185,0.00050,409.775,0.038,0.0787,0.0013,140.001,45.000,28799.67577,1.98341,410.164,34.534,45.067,45.000,0.00,0.09,-272.69,-272.73,-10,161,-3,20.9,2.5,-27.7,21.3,2.9,-25.9,5.73,2.37,-21.2,27.5
2015-01-30 00:34:00,0.0,1.98129,0.00042,409.725,0.029,0.0775,0.0016,140.000,45.000,28797.97591,1.98280,410.108,34.549,45.067,45.000,0.00,0.09,-272.68,-272.75,-9,159,-3,20.9,2.5,-27.8,21.3,2.9,-25.8,5.73,2.52,-21.2,27.5
2015-01-30 00:35:00,0.0,1.98106,0.00045,409.665,0.036,0.0767,0.0014,140.002,45.000,28800.32225,1.98256,410.042,34.536,45.067,45.000,0.00,0.09,-272.67,-272.76,-11,159,-3,20.9,2.5,-27.9,21.3,2.9,-25.8,5.73,2.08,-21.2,27.5
2015-01-30 00:36:00,0.0,1.98075,0.00034,409.641,0.035,0.0767,0.0017,139.999,45.000,28798.82355,1.98224,410.020,34.529,45.067,45.000,0.00,0.09,-272.70,-272.73,-11,160,-3,20.9,2.5,-28.1,21.3,2.9,-25.8,5.73,2.38,-21.2,27.5
2015-01-30 00:37:00,0.0,1.98119,0.00034,409.649,0.028,0.0764,0.0015,140.000,45.000,28800.55025,1.98266,410.025,34.537,45.067,45.000,0.00,0.09,-272.68,-272.75,-9,161,-3,20.9,2.5,-28.0,21.3,2.9,-25.8,5.73,2.51,-21.2,27.5
2015-01-30 00:38:00,0.0,1.98146,0.00033,409.634,0.030,0.0760,0.0018,140.000,45.000,28800.75934,1.98294,410.007,34.558,45.067,45.000,0.00,0.09,-272.68,-272.76,-9,160,-3,20.9,2.5,-28.0,21.3,2.9,-25.8,5.73,2.06,-21.2,27.5
2015-01-30 00:39:00,0.0,1.98146,0.00038,409.642,0.035,0.0768,0.0018,139.998,45.000,28806.44883,1.98295,410.021,34.560,45.067,45.000,0.00,0.09,-272.71,-272.73,-11,161,-3,20.9,2.5,-28.0,21.3,3.0,-25.8,5.73,2.44,-21.2,27.5
2015-01-30 00:40:00,0.0,1.98199,0.00042,409.694,0.030,0.0768,0.0020,139.998,45.000,28806.13229,1.98346,410.072,34.558,45.067,45.000,0.00,0.09,-272.67,-272.75,-10,162,-3,20.9,2.5,-28.0,21.3,3.0,-25.8,5.73,2.47,-21.2,27.5
2015-01-30 00:41:00,0.0,1.98225,0.00052,409.741,0.031,0.0773,0.0013,140.001,45.000,28804.82711,1.98375,410.121,34.562,45.067,45.000,0.00,0.09,-272.68,-272.75,-9,161,-3,20.9,2.5,-27.9,21.3,3.0,-25.7,5.73,2.05,-21.2,27.5
2015-01-30 00:42:00,0.0,1.98260,0.00032,409.721,0.028,0.0775,0.0011,140.003,45.000,28810.69789,1.98412,410.106,34.566,45.067,45.000,0.00,0.09,-272.71,-272.73,-10,161,-3,20.9,2.5,-27.8,21.3,3.0,-25.7,5.73,2.50,-21.2,27.5
2015-01-30 00:43:00,0.0,1.98196,0.00042,409.691,0.025,0.0767,0.0017,139.999,45.000,28812.64482,1.98351,410.070,34.564,45.067,45.000,0.00,0.09,-272.67,-272.75,-11,162,-3,20.9,2.5,-28.0,21.3,3.0,-25.7,5.73,2.38,-21.2,27.5
2015-01-30 00:44:00,0.0,1.98111,0.00049,409.640,0.038,0.0764,0.0019,140.000,45.000,28812.46759,1.98262,410.017,34.562,45.067,45.000,0.00,0.09,-272.67,-272.75,-9,162,-3,20.9,2.5,-28.0,21.3,3.0,-25.8,5.73,2.07,-21.2,27.5
2015-01-30 00:45:00,0.0,1.98057,0.00031,409.577,0.042,0.0755,0.0014,140.000,45.000,28812.51431,1.98206,409.951,34.562,45.067,45.000,0.00,0.09,-272.70,-272.73,-10,161,-3,20.9,2.5,-28.0,21.3,3.0,-25.7,5.73,2.58,-21.2,27.5
2015-01-30 00:46:00,0.0,1.98070,0.00040,409.545,0.038,0.0756,0.0015,140.000,45.000,28810.33552,1.98217,409.917,34.563,45.067,45.000,0.00,0.09,-272.67,-272.76,-11,161,-3,20.9,2.4,-28.1,21.3,3.0,-25.8,5.73,2.26,-21.2,27.5
2015-01-30 00:47:00,0.0,1.98066,0.00045,409.540,0.042,0.0759,0.0021,140.002,45.000,28811.39977,1.98215,409.916,34.562,45.067,45.000,0.00,0.09,-272.69,-272.74,-9,162,-3,20.9,2.4,-28.1,21.3,3.0,-25.8,5.73,2.15,-21.2,27.5
2015-01-30 00:48:00,0.0,1.98065,0.00028,409.535,0.030,0.0760,0.0015,140.000,45.000,28808.24352,1.98212,409.909,34.557,45.067,45.000,0.00,0.09,-272.70,-272.74,-9,161,-3,20.9,2.4,-28.1,21.3,3.0,-25.7,5.73,2.61,-21.2,27.5
2015-01-30 00:49:00,0.0,1.98112,0.00041,409.563,0.033,0.0760,0.0014,140.002,45.000,28808.71204,1.98260,409.936,34.559,45.067,45.000,0.00,0.09,-272.66,-272.76,-11,161,-3,20.9,2.4,-28.1,21.3,3.0,-25.7,5.73,2.14,-21.2,27.5
2015-01-30 00:50:00,0.0,1.98105,0.00034,409.540,0.043,0.0762,0.0016,140.000,45.000,28810.17806,1.98252,409.915,34.562,45.067,45.000,0.00,0.09,-272.69,-272.73,-10,162,-3,20.9,2.5,-28.0,21.3,3.0,-25.8,5.73,2.27,-21.2,27.5
2015-01-30 00:51:00,0.0,1.98132,0.00045,409.564,0.040,0.0768,0.0015,140.002,45.000,28810.34595,1.98282,409.942,34.566,45.067,45.000,0.00,0.09,-272.69,-272.75,-9,162,-3,20.9,2.5,-28.0,21.3,3.0,-25.8,5.73,2.58,-21.2,27.5
2015-01-30 00:52:00,0.0,1.98169,0.00036,409.630,0.031,0.0767,0.0015,139.998,45.000,28808.74686,1.98317,410.008,34.597,45.067,45.000,0.00,0.09,-272.67,-272.76,-10,161,-3,20.9,2.5,-28.0,21.3,3.0,-25.7,5.73,2.05,-21.2,27.5
2015-01-30 00:53:00,0.0,1.98197,0.00045,409.653,0.033,0.0773,0.0015,140.000,45.000,28808.04867,1.98349,410.035,34.627,45.067,45.000,0.00,0.09,-272.71,-272.72,-11,162,-3,20.9,2.5,-28.0,21.3,3.0,-25.8,5.73,2.43,-21.2,27.5
2015-01-30 00:54:00,0.0,1.98147,0.00041,409.638,0.033,0.0764,0.0019,139.999,45.000,28810.03052,1.98296,410.015,34.626,45.067,45.000,0.00,0.09,-272.68,-272.75,-9,162,-3,20.9,2.5,-27.9,21.3,3.0,-25.8,5.73,2.45,-21.2,27.5
2015-01-30 00:55:00,0.0,1.98079,0.00063,409.592,0.040,0.0767,0.0021,140.000,45.000,28812.45377,1.98231,409.971,34.627,45.067,45.000,0.00,0.09,-272.68,-272.75,-10,161,-3,20.9,2.5,-28.1,21.3,3.0,-25.7,5.73,2.05,-21.2,27.5
2015-01-30 00:56:00,0.0,1.98020,0.00032,409.525,0.027,0.0756,0.0022,140.001,45.000,28812.20540,1.98169,409.897,34.624,45.067,45.000,0.00,0.09,-272.70,-272.73,-11,162,-3,20.9,2.4,-28.1,21.3,3.0,-25.8,5.73,2.58,-21.2,27.5
2015-01-30 00:57:00,0.0,1.97997,0.00043,409.536,0.021,0.0757,0.0016,140.001,45.000,28812.35797,1.98149,409.909,34.619,45.067,45.000,0.00,0.09,-272.66,-272.76,-9,162,-3,20.9,2.4,-28.1,21.3,3.0,-25.8,5.73,2.25,-21.2,27.6
2015-01-30 00:58:00,0.0,1.97952,0.00041,409.495,0.034,0.0760,0.0021,140.002,45.000,28812.78147,1.98100,409.871,34.604,45.067,45.000,0.00,0.09,-272.70,-272.73,-9,161,-3,20.9,2.4,-28.1,21.3,3.0,-25.8,5.73,2.17,-21.2,27.5
2015-01-30 00:59:00,0.0,1.98007,0.00045,409.536,0.033,0.0761,0.0019,140.002,45.000,28815.19648,1.98153,409.910,34.612,45.067,45.000,0.00,0.09,-272.69,-272.74,-11,162,-3,20.9,2.5,-28.0,21.3,3.0,-25.8,5.73,2.62,-21.2,27.5
2015-01-30 01:00:00,0.0,1.97957,0.00034,409.533,0.037,0.0767,0.0015,139.998,45.000,28812.92439,1.98107,409.911,34.620,45.067,45.000,0.00,0.09,-272.66,-272.76,-9,163,-3,20.9,2.5,-28.0,21.3,3.0,-25.8,5.73,2.07,-21.2,27.5
2015-01-30 01:01:00,0.0,1.97993,0.00045,409.570,0.037,0.0762,0.0011,140.002,45.000,28815.44079,1.98137,409.947,34.621,45.067,45.000,0.00,0.09,-272.71,-272.73,-9,162,-3,20.9,2.5,-28.0,21.3,3.0,-25.8,5.73,2.38,-21.2,27.4
2015-01-30 01:02:00,0.0,1.98009,0.00029,409.566,0.035,0.0760,0.0012,140.001,45.000,28813.60532,1.98159,409.940,34.625,45.067,45.000,0.00,0.09,-272.68,-272.75,-11,162,-3,20.9,2.5,-28.0,21.3,3.0,-25.8,5.73,2.49,-21.2,27.4
2015-01-30 01:03:00,0.0,1.97994,0.00033,409.578,0.049,0.0775,0.0015,140.000,45.000,28816.33204,1.98146,409.959,34.623,45.067,45.000,0.00,0.09,-272.67,-272.75,-10,163,-3,20.9,2.5,-28.0,21.3,3.0,-25.8,5.73,2.03,-21.2,27.5
2015-01-30 01:04:00,0.0,1.98010,0.00035,409.614,0.031,0.0766,0.0014,140.001,45.000,28817.49693,1.98158,409.991,34.620,45.067,45.000,0.00,0.09,-272.70,-272.73,-8,162,-3,20.9,2.5,-28.0,21.3,3.0,-25.8,5.73,2.57,-21.2,27.5
2015-01-30 01:05:00,0.0,1.98028,0.00046,409.606,0.029,0.0772,0.0015,139.998,45.000,28817.01561,1.98177,409.985,34.623,45.067,45.000,0.00,0.09,-272.67,-272.76,-11,162,-3,20.9,2.5,-28.0,21.3,3.0,-25.8,5.73,2.28,-21.2,27.5
2015-01-30 01:06:00,0.0,1.98037,0.00045,409.645,0.033,0.0768,0.0015,139.999,45.000,28818.94266,1.98186,410.023,34.625,45.067,45.000,0.00,0.09,-272.69,-272.74,-10,163,-3,20.9,2.5,-28.0,21.3,3.0,-25.8,5.73,2.14,-21.2,27.5
2015-01-30 01:07:00,0.0,1.98072,0.00031,409.653,0.046,0.0768,0.0020,140.002,45.000,28820.04003,1.98221,410.032,34.628,45.067,45.000,0.00,0.09,-272.70,-272.73,-8,162,-3,20.9,2.5,-28.0,21.3,3.0,-25.8,5.73,2.62,-21.2,27.5
2015-01-30 01:08:00,0.0,1.98052,0.00036,409.651,0.032,0.0768,0.0016,140.002,45.000,28821.68460,1.98204,410.030,34.630,45.067,45.000,0.00,0.09,-272.67,-272.76,-10,162,-3,20.9,2.5,-27.9,21.3,3.0,-25.8,5.73,2.08,-21.2,27.5
2015-01-30 01:09:00,0.0,1.98063,0.00033,409.664,0.038,0.0772,0.0021,140.002,45.000,28821.10902,1.98213,410.044,34.631,45.067,45.000,0.00,0.09,-272.71,-272.73,-10,162,-3,20.9,2.5,-27.9,21.3,3.0,-25.8,5.73,2.36,-21.2,27.5
2015-01-30 01:10:00,0.0,1.98085,0.00036,409.691,0.024,0.0769,0.0014,140.003,45.000,28822.20244,1.98234,410.069,34.628,45.067,45.000,0.00,0.09,-272.67,-272.75,-8,163,-3,20.9,2.5,-27.9,21.3,3.0,-25.8,5.73,2.50,-21.2,27.5
2015-01-30 01:11:00,0.0,1.98090,0.00035,409.698,0.038,0.0767,0.0015,139.999,45.000,28824.66763,1.98240,410.077,34.652,45.067,45.000,0.00,0.09,-272.67,-272.74,-10,163,-3,20.9,2.5,-27.9,21.3,3.0,-25.8,5.73,2.02,-21.2,27.5
2015-01-30 01:12:00,0.0,1.98095,0.00037,409.724,0.028,0.0775,0.0017,139.998,45.000,28821.37824,1.98246,410.105,34.671,45.067,45.000,0.00,0.09,-272.71,-272.73,-10,163,-3,20.9,2.5,-27.9,21.3,3.0,-25.8,5.73,2.58,-21.2,27.5
2015-01-30 01:13:00,0.0,1.98071,0.00031,409.704,0.028,0.0776,0.0013,140.001,45.000,28822.72937,1.98223,410.086,34.683,45.067,45.000,0.00,0.09,-272.66,-272.76,-8,163,-3,20.9,2.5,-27.9,21.3,3.0,-25.8,5.73,2.24,-21.2,27.5
2015-01-30 01:14:00,0.0,1.98049,0.00047,409.664,0.033,0.0773,0.0019,140.002,45.000,28823.57777,1.98200,410.047,34.685,45.067,45.000,0.00,0.09,-272.69,-272.72,-10,163,-3,20.9,2.5,-27.9,21.3,3.0,-25.8,5.73,2.18,-21.2,27.5
2015-01-30 01:15:00,0.0,1.98065,0.00034,409.648,0.033,0.0778,0.0015,139.998,45.000,28822.44085,1.98215,410.030,34.679,45.067,45.000,0.00,0.09,-272.69,-272.75,-11,163,-3,20.9,2.5,-27.9,21.3,3.0,-25.7,5.73,2.60,-21.2,27.5
2015-01-30 01:16:00,0.0,1.98049,0.00028,409.664,0.042,0.0777,0.0015,139.999,45.000,28822.58267,1.98200,410.046,34.683,45.067,45.000,0.00,0.09,-272.67,-272.76,-8,163,-3,20.9,2.5,-27.9,21.3,3.0,-25.8,5.73,2.03,-21.2,27.5
2015-01-30 01:17:00,0.0,1.98022,0.00038,409.642,0.040,0.0767,0.0013,139.999,45.000,28818.85345,1.98173,410.023,34.688,45.067,45.000,0.00,0.09,-272.70,-272.72,-10,162,-3,20.9,2.5,-28.0,21.3,3.0,-25.8,5.73,2.47,-21.2,27.5
2015-01-30 01:18:00,0.0,1.98018,0.00038,409.627,0.031,0.0772,0.0015,139.998,45.000,28816.90486,1.98169,410.007,34.680,45.067,45.000,0.00,0.09,-272.67,-272.76,-11,162,-3,20.9,2.5,-27.9,21.3,3.0,-25.7,5.73,2.39,-21.2,27.5
2015-01-30 01:19:00,0.0,1.98036,0.00024,409.643,0.030,0.0779,0.0020,140.000,45.000,28820.23272,1.98189,410.026,34.639,45.067,45.000,0.00,0.09,-272.69,-272.74,-8,162,-3,20.9,2.5,-27.8,21.3,3.0,-25.8,5.73,2.06,-21.2,27.5
2015-01-30 01:20:00,0.0,1.98027,0.00037,409.671,0.036,0.0773,0.0013,140.000,45.000,28816.85779,1.98176,410.053,34.657,45.067,45.000,0.00,0.09,-272.69,-272.73,-9,162,-3,20.9,2.5,-27.9,21.3,3.0,-25.8,5.73,2.62,-21.2,27.5
2015-01-30 01:21:00,0.0,1.98051,0.00038,409.666,0.028,0.0774,0.0015,140.000,45.000,28813.30352,1.98202,410.047,34.684,45.067,45.000,0.00,0.09,-272.66,-272.76,-11,161,-3,20.9,2.5,-27.8,21.3,3.0,-25.7,5.73,2.14,-21.2,27.5
2015-01-30 01:22:00,0.0,1.98065,0.00031,409.676,0.032,0.0783,0.0014,139.999,45.000,28813.26909,1.98217,410.061,34.687,45.067,45.000,0.00,0.09,-272.70,-272.73,-9,162,-3,20.9,2.5,-27.9,21.3,3.0,-25.7,5.73,2.27,-21.2,27.5
2015-01-30 01:23:00,0.0,1.98047,0.00039,409.684,0.033,0.0776,0.0014,140.000,45.000,28815.68313,1.98200,410.066,34.686,45.067,45.000,0.00,0.09,-272.69,-272.75,-9,161,-3,20.9,2.5,-27.9,21.3,3.0,-25.8,5.73,2.57,-21.2,27.5
2015-01-30 01:24:00,0.0,1.98080,0.00025,409.697,0.025,0.0786,0.0019,139.999,45.000,28816.74997,1.98231,410.085,34.690,45.067,45.000,0.00,0.09,-272.67,-272.75,-11,162,-3,20.9,2.5,-27.9,21.3,3.0,-25.7,5.73,2.03,-21.2,27.5
2015-01-30 01:25:00,0.0,1.98040,0.00038,409.679,0.030,0.0783,0.0020,139.999,45.000,28816.13064,1.98194,410.065,34.702,45.067,45.000,0.00,0.09,-272.71,-272.73,-9,162,-3,20.9,2.5,-27.8,21.3,3.0,-25.7,5.73,2.48,-21.2,27.5
2015-01-30 01:26:00,0.0,1.98071,0.00038,409.706,0.031,0.0778,0.0017,140.001,45.000,28817.78618,1.98222,410.090,34.729,45.067,45.000,0.00,0.09,-272.67,-272.76,-9,161,-3,20.9,2.5,-27.8,21.3,3.0,-25.7,5.73,2.38,-21.2,27.5
2015-01-30 01:27:00,0.0,1.98063,0.00029,409.704,0.032,0.0777,0.0014,139.998,45.000,28816.63771,1.98214,410.087,34.750,45.067,45.000,0.00,0.09,-272.68,-272.74,-11,161,-3,21.0,2.5,-27.8,21.3,3.0,-25.7,5.73,2.07,-21.2,27.5
2015-01-30 01:28:00,0.0,1.98090,0.00032,409.747,0.036,0.0775,0.0014,140.000,45.000,28810.70917,1.98240,410.129,34.750,45.067,45.000,0.00,0.09,-272.70,-272.74,-10,162,-3,21.0,2.5,-27.8,21.3,3.0,-25.7,5.73,2.61,-21.2,27.5
2015-01-30 01:29:00,0.0,1.98125,0.00039,409.779,0.032,0.0782,0.0015,140.001,45.000,28811.03218,1.98276,410.164,34.775,45.067,45.000,0.00,0.31,-270.95,-272.57,-8,161,-3,21.0,2.5,-27.7,21.3,3.0,-25.7,5.43,2.20,-22.8,27.5
2015-01-30 01:30:00,0.0,1.98131,0.00032,409.801,0.036,0.0785,0.0015,139.997,45.000,28810.15973,1.98287,410.188,34.792,45.067,44.999,0.00,0.09,-272.70,-272.73,-11,161,-3,21.0,2.5,-27.7,21.3,3.0,-25.7,5.73,2.24,-21.1,27.5
2015-01-30 01:31:00,0.0,1.98144,0.00030,409.814,0.021,0.0787,0.0016,140.001,45.000,28813.95055,1.98296,410.202,34.807,45.067,45.000,0.00,0.09,-272.68,-272.74,-10,162,-3,21.0,2.5,-27.7,21.3,3.0,-25.7,5.73,2.58,-21.2,27.6
2015-01-30 01:32:00,0.0,1.98180,0.00046,409.828,0.030,0.0783,0.0017,139.998,45.000,28811.71164,1.98331,410.213,34.795,45.067,45.000,0.00,0.09,-272.67,-272.76,-8,162,-3,21.0,2.5,-27.7,21.3,3.0,-25.7,5.73,2.03,-21.2,27.6
2015-01-30 01:33:00,0.0,1.98191,0.00035,409.841,0.026,0.0789,0.0018,139.998,45.000,28812.55151,1.98344,410.231,34.789,45.067,45.000,0.00,0.09,-272.71,-272.73,-10,161,-3,21.0,2.5,-27.7,21.3,3.0,-25.7,5.73,2.47,-21.1,27.6
2015-01-30 01:34:00,0.0,1.98141,0.00037,409.815,0.038,0.0792,0.0018,140.001,45.000,28815.63459,1.98298,410.207,34.807,45.067,45.000,0.00,0.09,-272.67,-272.75,-11,162,-3,21.0,2.5,-27.7,21.4,3.0,-25.7,5.73,2.39,-21.1,27.5
2015-01-30 01:35:00,0.0,1.98118,0.00046,409.786,0.033,0.0788,0.0014,140.000,45.000,28817.80436,1.98277,410.175,34.802,45.067,45.000,0.00,0.09,-272.69,-272.74,-8,163,-3,21.0,2.5,-27.6,21.4,3.0,-25.7,5.73,2.06,-21.1,27.5
2015-01-30 01:36:00,0.0,1.98089,0.00036,409.731,0.040,0.0788,0.0015,140.001,45.000,28817.04421,1.98241,410.119,34.783,45.067,45.000,0.00,0.09,-272.70,-272.73,-10,162,-3,21.0,2.5,-27.7,21.4,3.0,-25.7,5.73,2.63,-21.1,27.5
2015-01-30 01:37:00,0.0,1.98053,0.00041,409.711,0.027,0.0788,0.0012,139.998,45.000,28813.34875,1.98208,410.100,34.795,45.067,45.000,0.00,0.09,-272.67,-272.75,-11,162,-3,21.0,2.5,-27.8,21.4,3.0,-25.7,5.73,2.11,-21.1,27.6
2015-01-30 01:38:00,0.0,1.98022,0.00019,409.702,0.039,0.0780,0.0016,139.999,45.000,28812.37363,1.98175,410.087,34.813,45.067,45.000,0.00,0.09,-272.70,-272.73,-8,162,-3,21.0,2.5,-27.8,21.4,3.0,-25.7,5.73,2.32,-21.1,27.6
2015-01-30 01:39:00,0.0,1.98024,0.00037,409.695,0.034,0.0784,0.0015,140.000,45.000,28813.69211,1.98176,410.081,34.812,45.067,45.000,0.00,0.09,-272.68,-272.75,-10,161,-3,21.0,2.5,-27.7,21.4,3.0,-25.7,5.73,2.52,-21.1,27.6
2015-01-30 01:40:00,0.0,1.98055,0.00033,409.766,0.035,0.0785,0.0017,140.001,45.000,28816.87801,1.98205,410.153,34.813,45.067,45.000,0.00,0.09,-272.67,-272.75,-11,162,-3,21.0,2.5,-27.7,21.4,3.0,-25.7,5.73,2.02,-21.1,27.6
2015-01-30 01:41:00,0.0,1.98083,0.00036,409.768,0.044,0.0783,0.0016,140.000,45.000,28816.08984,1.98235,410.155,34.812,45.067,45.000,0.00,0.09,-272.70,-272.73,-8,162,-3,21.0,2.5,-27.7,21.4,3.0,-25.7,5.73,2.59,-21.1,27.6
2015-01-30 01:42:00,0.0,1.98095,0.00035,409.801,0.031,0.0789,0.0016,140.001,45.000,28817.80167,1.98247,410.187,34.813,45.067,45.000,0.00,0.09,-272.66,-272.76,-10,162,-3,21.0,2.5,-27.7,21.4,3.0,-25.7,5.73,2.23,-21.1,27.5
2015-01-30 01:43:00,0.0,1.98160,0.00038,409.848,0.029,0.0787,0.0014,139.997,45.000,28817.63976,1.98312,410.236,34.813,45.067,45.000,0.00,0.09,-272.69,-272.73,-11,163,-3,21.0,2.5,-27.7,21.4,3.0,-25.7,5.73,2.18,-21.1,27.6
2015-01-30 01:44:00,0.0,1.98195,0.00038,409.894,0.050,0.0799,0.0019,140.001,45.000,28814.98664,1.98350,410.286,34.812,45.067,45.000,0.00,0.09,-272.69,-272.74,-9,162,-3,21.0,2.5,-27.6,21.4,3.0,-25.7,5.73,2.60,-21.1,27.6
2015-01-30 01:45:00,0.0,1.98211,0.00038,409.925,0.029,0.0805,0.0023,140.000,45.000,28816.46600,1.98369,410.320,34.795,45.067,45.000,0.00,0.09,-272.67,-272.76,-10,161,-3,21.0,2.6,-27.5,21.4,3.0,-25.6,5.73,2.04,-21.1,27.6